Stations météo

Publicité
Cazaux, France (7502): Température de l'air & dewpoint: 17.09.2020 11:00:00 - 23.09.2020 11:00:00 (CEST)Cazaux, France (7502): Température de l'air 5cm: 17.09.2020 11:00:00 - 23.09.2020 11:00:00 (CEST)Cazaux, France (7502): Température de l'air -20cm & Température de l'air -100cm: 17.09.2020 11:00:00 - 23.09.2020 11:00:00 (CEST)Cazaux, France (7502): Vitesse du vent & gusts: 17.09.2020 11:00:00 - 23.09.2020 11:00:00 (CEST)Cazaux, France (7502): Direction du vent: 17.09.2020 11:00:00 - 23.09.2020 11:00:00 (CEST)Cazaux, France (7502): reduced air pressure: 17.09.2020 11:00:00 - 23.09.2020 11:00:00 (CEST)Cazaux, France (7502): visibility: 17.09.2020 11:00:00 - 23.09.2020 11:00:00 (CEST)Cazaux, France (7502): Quantités de précipitations: 17.09.2020 11:00:00 - 23.09.2020 11:00:00 (CEST)
Date & Time tt [°C] td [°C] tt 5cm [°C] tt -20cm [°C] tt -100cm [°C] ff [km/h] ff [knt] fx [km/h] fx [knt] dd ppp [hPa] vv [km] rr [mm]
23.09.2020 11:00:00 20,1 16,3 19,8 21,0 22,6 10 5 16 9 S 1009,0 51 0,0
23.09.2020 10:00:00 18,4 16,0 16,8 21,1 22,6 10 5 14 8 SE 1009,1 53 0,0
23.09.2020 09:00:00 15,4 14,9 13,6 21,2 22,6 2 1 8 4 ENE 1009,6 12 0,0
23.09.2020 08:00:00 14,3 14,0 13,2 21,3 22,6 4 2 9 5 ENE 1009,8 4,0 0,0
23.09.2020 07:00:00 14,3 13,8 13,5 21,4 22,6 7 4 9 5 ESE 1010,1 7 0,0
23.09.2020 06:00:00 15,3 15,0 13,8 21,4 22,6 0 0 9 5 N 1010,4 9 0,0
23.09.2020 05:00:00 15,5 15,2 13,8 21,5 22,6 4 2 6 3 ESE 1010,8 10 0,0
23.09.2020 04:00:00 15,3 15,0 14,7 21,6 22,6 0 0 8 5 N 1011,2 13 0,0
23.09.2020 03:00:00 15,6 15,3 13,3 21,6 22,6 2 1 7 4 E 1011,9 9 0,0
23.09.2020 02:00:00 15,2 14,9 13,2 21,7 22,6 2 1 5 3 SE 1012,4 17 0,0
23.09.2020 01:00:00 15,2 14,9 12,3 21,7 22,6 2 1 7 4 NE 1012,7 6 0,0
23.09.2020 00:00:00 15,2 14,9 12,2 21,8 22,6 0 0 3 1 N 1013,2 0,7 0,0
22.09.2020 23:00:00 15,3 14,7 12,7 21,8 22,6 0 0 3 2 N 1013,4 1,7 0,0
22.09.2020 22:00:00 16,8 16,0 13,2 21,8 22,6 0 0 4 2 N 1013,1 11 0,0
22.09.2020 21:00:00 17,8 16,5 14,3 21,7 22,6 2 1 5 3 W 1012,7 42 0,0
22.09.2020 20:00:00 19,4 16,2 17,4 21,7 22,6 5 3 12 7 NNW 1012,3 60 0,0
22.09.2020 19:00:00 21,3 16,3 23,5 21,6 22,6 9 5 17 9 WNW 1012,7 55 0,0
22.09.2020 18:00:00 22,2 16,2 25,5 21,5 22,6 11 6 23 12 WNW 1013,0 60 0,0
22.09.2020 17:00:00 22,6 16,2 24,5 21,4 22,6 13 7 22 12 WNW 1013,4 47 0,0
22.09.2020 16:00:00 23,0 17,2 26,2 21,3 22,6 11 6 22 12 W 1013,8 60 0,0
22.09.2020 15:00:00 22,4 17,5 24,6 21,3 22,6 15 8 21 11 SW 1014,5 53 0,0
22.09.2020 14:00:00 21,0 18,2 19,8 21,3 22,6 8 4 13 7 SW 1015,0 52 0,4
22.09.2020 13:00:00 19,9 17,7 20,2 21,3 22,6 9 5 17 9 SW 1015,4 20 0,0
22.09.2020 12:00:00 19,5 17,3 19,6 21,4 22,6 6 4 11 6 S 1015,6 31 0,0
22.09.2020 11:00:00 18,9 17,0 18,6 21,4 22,6 6 4 11 6 SE 1015,7 32 0,0
22.09.2020 10:00:00 18,4 17,6 17,9 21,4 22,6 5 3 9 5 SE 1015,6 21 0,0
22.09.2020 09:00:00 17,7 17,4 16,8 21,5 22,7 4 2 5 3 SE 1015,5 11 0,0
22.09.2020 08:00:00 17,3 17,0 16,8 21,5 22,6 0 0 3 2 N 1015,2 9 0,2
22.09.2020 07:00:00 17,4 16,9 16,9 21,6 22,6 2 1 4 2 E 1015,1 11 0,0
22.09.2020 06:00:00 17,8 17,2 17,1 21,6 22,6 3 1 9 5 N 1015,2 19 0,2
22.09.2020 05:00:00 17,9 17,3 17,1 21,6 22,6 6 3 9 5 NW 1015,4 19 0,0
22.09.2020 04:00:00 17,9 17,3 17,2 21,7 22,6 5 3 16 9 NW 1015,7 24 0,0
22.09.2020 03:00:00 18,0 17,5 17,2 21,7 22,6 9 5 14 7 NNW 1016,2 17 0,0
22.09.2020 02:00:00 17,9 17,4 17,2 21,8 22,6 2 1 8 4 W 1016,5 17 0,0
22.09.2020 01:00:00 18,0 17,4 17,3 21,8 22,7 4 2 10 5 W 1016,8 18 0,2
22.09.2020 00:00:00 18,4 17,6 17,9 21,8 22,6 8 4 12 6 NNW 1017,1 19 0,4
21.09.2020 23:00:00 18,5 17,8 17,8 21,9 22,7 8 4 11 6 NW 1017,4 19 0,0
21.09.2020 22:00:00 18,5 18,0 18,0 21,9 22,6 6 3 10 5 NW 1017,3 18 0,0
21.09.2020 21:00:00 18,7 18,4 18,2 21,9 22,7 3 2 6 3 WNW 1017,1 15 0,2
21.09.2020 20:00:00 18,9 18,6 18,6 21,9 22,7 5 3 10 5 NW 1016,8 11 0,4
21.09.2020 19:00:00 18,9 18,6 18,6 21,9 22,7 6 4 18 10 NW 1016,7 6 5,0
21.09.2020 18:00:00 19,3 19,0 19,1 21,8 22,6 9 5 13 7 N 1016,8 4,4 2,2
21.09.2020 17:00:00 19,0 18,3 19,0 21,8 22,7 6 4 25 13 NW 1017,1 6 3,3
21.09.2020 16:00:00 20,1 18,4 19,6 21,7 22,6 18 10 27 15 W 1017,0 19 1,8
21.09.2020 15:00:00 20,5 19,2 20,2 21,7 22,7 11 6 21 12 WSW 1017,0 13 1,0
21.09.2020 14:00:00 20,0 19,0 18,5 21,7 22,6 10 5 38 21 WSW 1017,4 17 8,0
21.09.2020 13:00:00 23,1 19,3 23,7 21,7 22,6 10 5 18 10 W 1017,3 20 0,2
21.09.2020 12:00:00 20,8 18,7 22,1 21,8 22,6 5 3 8 5 NNW 1017,6 36 0,0
21.09.2020 11:00:00 19,9 18,7 20,5 21,8 22,7 2 1 13 7 NNE 1017,4 28 0,4
21.09.2020 10:00:00 19,4 18,7 18,7 21,9 22,7 8 4 13 7 NNW 1017,1 20 0,0
21.09.2020 09:00:00 18,4 17,9 17,1 21,9 22,7 5 3 12 7 WNW 1016,9 36 1,8
21.09.2020 08:00:00 17,2 16,9 15,4 22,0 22,7 2 1 9 5 ESE 1016,8 3,4 2,2
21.09.2020 07:00:00 17,2 16,7 15,6 22,0 22,7 2 1 6 4 NNW 1016,1 11 0,0
21.09.2020 06:00:00 17,7 17,2 16,2 22,1 22,7 0 0 5 3 N 1016,1 12 0,0
21.09.2020 05:00:00 17,3 17,0 15,7 22,1 22,7 0 0 4 2 N 1016,1 18 0,0
21.09.2020 04:00:00 16,5 16,3 13,7 22,1 22,7 0 0 6 3 N 1016,3 0,4 0,0
21.09.2020 03:00:00 16,2 15,9 12,3 22,2 22,7 0 0 3 1 N 1016,6 1,6 0,0
21.09.2020 02:00:00 15,9 15,3 12,2 22,2 22,7 0 0 2 1 N 1017,0 0,3 0,0
21.09.2020 01:00:00 17,3 16,5 13,8 22,2 22,7 2 1 5 3 WNW 1016,6 10 0,0
21.09.2020 00:00:00 18,1 16,9 15,2 22,2 22,7 3 2 8 4 WNW 1016,7 18 0,0
20.09.2020 23:00:00 18,6 17,6 14,9 22,2 22,7 2 1 5 3 NE 1016,9 3,2 0,2
20.09.2020 22:00:00 19,1 17,4 16,0 22,1 22,7 3 2 9 5 W 1016,6 55 0,0
20.09.2020 21:00:00 20,0 17,4 19,1 22,1 22,7 7 4 21 11 WNW 1016,1 60 0,0
20.09.2020 20:00:00 21,3 17,7 21,2 22,0 22,7 13 7 27 15 WNW 1015,6 29 0,0
20.09.2020 19:00:00 22,5 17,2 24,3 22,0 22,7 16 9 27 15 W 1014,9 51 0,0
20.09.2020 18:00:00 23,0 16,8 24,9 21,9 22,7 15 8 29 15 WNW 1014,6 49 0,0
20.09.2020 17:00:00 24,3 16,6 26,7 21,9 22,7 15 8 29 16 W 1014,5 54 0,0
20.09.2020 16:00:00 24,0 15,8 26,8 21,8 22,7 16 9 34 18 WNW 1014,5 60 0,0
20.09.2020 15:00:00 24,7 15,9 26,7 21,9 22,7 14 8 23 13 W 1014,6 60 0,0
20.09.2020 14:00:00 23,8 17,8 24,6 21,9 22,7 9 5 19 10 SSW 1014,6 60 0,0
20.09.2020 13:00:00 22,3 17,9 23,9 21,9 22,7 6 3 16 8 WNW 1014,9 60 0,0
20.09.2020 12:00:00 20,9 17,5 20,6 21,9 22,7 6 3 14 8 WNW 1014,9 58 0,0
20.09.2020 11:00:00 18,5 18,2 19,7 22,0 22,7 6 3 12 6 NNW 1014,8 19 0,0
20.09.2020 10:00:00 18,0 17,8 18,1 22,0 22,7 8 5 15 8 N 1014,1 1,4 0,0
20.09.2020 09:00:00 17,5 17,3 15,2 22,0 22,7 4 2 7 4 N 1013,6 18 0,0
20.09.2020 08:00:00 15,6 15,4 12,8 22,2 22,7 5 3 6 3 N 1013,2 2,8 0,0
20.09.2020 07:00:00 14,9 14,6 13,0 22,2 22,7 0 0 4 2 N 1012,9 0,3 0,0
20.09.2020 06:00:00 16,1 15,9 14,8 22,2 22,7 4 2 6 3 NNW 1012,5 0,4 0,0
20.09.2020 05:00:00 16,9 16,6 15,0 22,3 22,7 0 0 10 5 N 1012,3 0,9 0,0
20.09.2020 04:00:00 17,2 16,9 16,4 22,3 22,7 8 4 16 8 NNE 1012,5 17 0,0
20.09.2020 03:00:00 17,4 17,1 16,6 22,3 22,7 13 7 19 10 SE 1012,3 20 0,0
20.09.2020 02:00:00 17,2 16,9 16,6 22,3 22,7 9 5 13 7 ESE 1012,7 20 0,2
20.09.2020 01:00:00 17,2 16,7 15,6 22,3 22,7 8 4 24 13 SE 1012,9 19 0,4
20.09.2020 00:00:00 16,1 15,6 14,8 22,3 22,7 0 0 17 9 N 1013,1 20 0,0
19.09.2020 23:00:00 17,3 16,7 16,4 22,3 22,7 12 7 17 9 SE 1013,2 17 0,0
19.09.2020 22:00:00 17,7 16,7 16,5 22,3 22,7 7 4 22 12 ESE 1013,1 56 0,0
19.09.2020 21:00:00 18,9 17,2 17,6 22,2 22,7 16 8 23 12 S 1012,3 60 0,0
19.09.2020 20:00:00 19,5 17,5 17,8 22,2 22,7 16 9 27 14 S 1012,1 59 0,6
19.09.2020 19:00:00 22,1 16,1 22,3 22,2 22,7 13 7 29 16 WSW 1011,7 60 0,0
19.09.2020 18:00:00 23,7 15,5 24,8 22,1 22,7 14 8 29 16 WSW 1011,0 59 0,0
19.09.2020 17:00:00 24,4 14,8 26,7 22,1 22,7 14 7 32 17 WSW 1010,8 57 0,0
19.09.2020 16:00:00 26,4 13,8 29,0 22,1 22,7 14 8 31 17 WSW 1010,2 60 0,0
19.09.2020 15:00:00 26,3 13,4 28,3 22,1 22,7 13 7 27 14 WSW 1010,6 60 0,0
19.09.2020 14:00:00 26,6 14,0 28,6 22,1 22,7 21 11 32 17 SW 1011,2 57 0,0
19.09.2020 13:00:00 23,4 16,2 25,8 22,1 22,7 6 3 14 7 S 1011,5 54 0,0
19.09.2020 12:00:00 22,6 16,8 24,5 22,2 22,7 10 5 22 12 S 1011,8 59 0,0
19.09.2020 11:00:00 20,9 16,9 20,2 22,2 22,7 9 5 16 8 S 1011,8 58 0,0
19.09.2020 10:00:00 18,3 17,0 16,6 22,3 22,7 3 2 6 4 SE 1011,3 55 0,0
19.09.2020 09:00:00 16,2 15,9 13,8 22,3 22,7 3 2 6 4 E 1011,0 20 0,0
19.09.2020 08:00:00 16,0 15,4 13,7 22,4 22,7 5 3 11 6 E 1010,8 8 0,0
19.09.2020 07:00:00 16,4 15,9 13,9 22,4 22,7 4 2 9 5 S 1010,6 24 0,0
19.09.2020 06:00:00 16,5 16,2 14,1 22,4 22,7 4 2 9 5 SE 1010,6 17 0,0
19.09.2020 05:00:00 16,7 16,2 13,3 22,4 22,7 2 1 7 4 ENE 1010,6 4,9 0,0
19.09.2020 04:00:00 16,5 15,9 13,7 22,5 22,7 6 3 9 5 E 1010,9 9 0,0
19.09.2020 03:00:00 17,5 16,7 16,0 22,5 22,7 6 3 14 8 E 1010,8 11 0,0
19.09.2020 02:00:00 18,0 17,2 16,3 22,5 22,7 13 7 16 9 SSE 1011,5 10 0,0
19.09.2020 01:00:00 19,7 18,4 18,1 22,5 22,7 3 2 11 6 E 1011,6 19 0,0
19.09.2020 00:00:00 20,0 18,3 18,8 22,6 22,7 8 4 14 7 S 1011,8 13 0,2
18.09.2020 23:00:00 21,5 18,5 19,4 22,6 22,7 5 3 23 12 SSE 1012,6 19 0,0
18.09.2020 22:00:00 22,1 18,3 20,8 22,6 22,7 11 6 16 9 SW 1012,2 20 0,0
18.09.2020 21:00:00 23,9 16,9 22,2 22,6 22,7 8 4 11 6 ENE 1011,5 31 0,0
18.09.2020 20:00:00 24,7 16,7 23,5 22,5 22,7 9 5 16 9 E 1011,5 33 0,0
18.09.2020 19:00:00 26,5 17,0 26,7 22,5 22,7 11 6 20 11 ENE 1011,3 43 0,0
18.09.2020 18:00:00 27,0 16,3 28,1 22,5 22,7 16 9 24 13 E 1011,2 49 0,0
18.09.2020 17:00:00 26,9 16,8 25,6 22,6 22,7 16 9 22 12 E 1011,5 36 0,0
18.09.2020 16:00:00 25,1 17,6 23,5 22,5 22,7 11 6 17 9 E 1012,0 33 0,0
18.09.2020 15:00:00 26,1 16,4 26,1 22,6 22,7 2 1 16 9 ESE 1011,8 40 0,0
18.09.2020 14:00:00 25,5 16,9 24,4 22,6 22,7 12 6 26 14 SE 1012,0 40 0,0
18.09.2020 13:00:00 23,0 17,7 23,5 22,6 22,7 9 5 16 9 SE 1012,0 19 0,0
18.09.2020 12:00:00 22,3 17,0 20,8 22,7 22,7 9 5 15 8 ENE 1011,8 30 0,0
18.09.2020 11:00:00 21,1 16,1 18,5 22,7 22,7 6 3 10 5 NE 1011,8 27 0,2
18.09.2020 10:00:00 21,3 14,7 20,0 22,8 22,7 6 4 9 5 SSE 1012,1 34 0,0
18.09.2020 09:00:00 19,8 13,9 17,8 22,8 22,7 5 3 8 4 SE 1011,3 29 0,0
18.09.2020 08:00:00 19,0 13,4 17,2 22,9 22,7 3 1 5 3 NE 1010,6 26 0,0
18.09.2020 07:00:00 18,8 13,0 14,6 22,9 22,7 4 2 6 3 N 1010,2 24 0,0
18.09.2020 06:00:00 19,1 12,4 15,0 22,9 22,7 0 0 10 6 N 1010,2 26 0,0
18.09.2020 05:00:00 20,8 12,5 16,3 23,0 22,7 7 4 12 6 ENE 1010,3 31 0,0
18.09.2020 04:00:00 20,7 12,1 16,8 23,0 22,7 5 3 11 6 NE 1010,4 38 0,0
18.09.2020 03:00:00 20,6 12,0 17,0 23,0 22,7 0 0 13 7 N 1010,7 42 0,0
18.09.2020 02:00:00 23,3 12,0 21,8 23,0 22,7 9 5 13 7 NE 1010,5 39 0,0
18.09.2020 01:00:00 24,2 12,5 20,6 23,0 22,7 8 4 16 8 NE 1010,9 36 0,0
18.09.2020 00:00:00 24,8 12,7 22,0 23,0 22,7 7 4 11 6 ENE 1011,1 36 0,0
17.09.2020 23:00:00 25,0 12,6 20,5 22,9 22,7 6 3 8 5 NE 1011,6 41 0,0
17.09.2020 22:00:00 24,7 12,0 22,0 22,9 22,6 8 4 17 9 ENE 1011,5 48 0,0
17.09.2020 21:00:00 29,0 12,0 27,5 22,8 22,7 11 6 19 10 ENE 1011,1 55 0,0
17.09.2020 20:00:00 30,1 12,1 28,9 22,7 22,6 13 7 26 14 ENE 1011,3 56 0,0
17.09.2020 19:00:00 33,3 11,2 34,4 22,6 22,7 14 8 28 15 ENE 1011,4 19 0,0
17.09.2020 18:00:00 34,3 9,5 37,7 22,6 22,6 15 8 34 18 ENE 1011,5 24 0,0
17.09.2020 17:00:00 34,6 9,8 39,2 22,5 22,6 16 8 34 19 E 1011,8 16 0,0
17.09.2020 16:00:00 34,6 10,4 39,6 22,5 22,6 17 9 38 21 E 1012,3 19 0,0
17.09.2020 15:00:00 34,3 12,0 39,2 22,5 22,6 18 10 40 22 E 1012,9 37 0,0
17.09.2020 14:00:00 33,6 14,1 37,9 22,5 22,7 18 10 29 16 E 1013,8 20 0,0
17.09.2020 13:00:00 32,1 14,3 35,3 22,5 22,6 14 7 21 11 E 1014,4 54 0,0
17.09.2020 12:00:00 29,6 15,0 30,7 22,6 22,6 11 6 22 12 ENE 1015,0 42 0,0
17.09.2020 11:00:00 25,4 15,4 25,8 22,6 22,6 10 6 18 10 ENE 1015,6 60 0,0

tt = Température de l'air
td = dewpoint
tt 5cm = Température de l'air 5cm
tt -20cm = Température de l'air -20cm
tt -100cm = Température de l'air -100cm
ff = Vitesse du vent
fx = gusts
dd = Direction du vent
ppp = reduced air pressure
vv = visibility
rr = Quantités de précipitations

stations d'obs. à proximité